SR2ATJ-13 Weather Reports


time (UTC)temp
C
wind
direction
speed
KPH
gust
KPH
rain 1hr
cm
rain 24hr
cm
rain mn
cm
humidity
%
barometer
mb
20260503034504 8 0.0 0.0 0.00 0.00 0.00 66 1016.4
20260503033503 8 0.0 0.0 0.00 0.00 0.00 66 1016.4
20260503032503 8 0.0 0.0 0.00 0.00 0.00 66 1016.5
20260503031503 8 0.0 0.0 0.00 0.00 0.00 66 1016.5
20260503030503 8 0.0 0.0 0.00 0.00 0.00 66 1016.5
20260503025503 8 0.0 0.0 0.00 0.00 0.00 66 1016.5
20260503024504 8 0.0 0.0 0.00 0.00 0.00 65 1016.5
20260503023503 8 0.0 0.0 0.00 0.00 0.00 65 1016.6
20260503022504 8 0.0 0.0 0.00 0.00 0.00 65 1016.6
20260503021504 8 0.0 0.0 0.00 0.00 0.00 64 1016.6
20260503020504 8 0.0 0.0 0.00 0.00 0.00 64 1016.6
20260503015504 8 0.0 0.0 0.00 0.00 0.00 64 1016.7
20260503014504 8 0.0 0.0 0.00 0.00 0.00 65 1016.8
20260503013504 8 0.0 0.0 0.00 0.00 0.00 66 1016.9
20260503012504 8 0.0 0.0 0.00 0.00 0.00 65 1016.9
20260503011504 9 0.0 0.0 0.00 0.00 0.00 65 1016.9
20260503010504 9 0.0 0.0 0.00 0.00 0.00 65 1017.0
20260503005503 9 0.0 0.0 0.00 0.00 0.00 66 1017.0
20260503004503 9 0.0 0.0 0.00 0.00 0.00 65 1017.0
20260503003505 9 0.0 0.0 0.00 0.00 0.00 66 1017.2
20260503002503 10 0.0 0.0 0.00 0.00 0.00 66 1017.2
20260503001503 10 0.0 0.0 0.00 0.00 0.00 66 1017.3
20260503000503 10 0.0 0.0 0.00 0.00 0.00 65 1017.3
20260502235504 10 0.0 0.0 0.00 0.00 0.00 63 1017.3
20260502234503 10 0.0 0.0 0.00 0.00 0.00 63 1017.4
20260502233504 10 0.0 0.0 0.00 0.00 0.00 62 1017.4
20260502232505 10 0.0 0.0 0.00 0.00 0.00 61 1017.5
20260502231503 10 0.0 0.0 0.00 0.00 0.00 61 1017.6
20260502230503 10 0.0 0.0 0.00 0.00 0.00 62 1017.6
20260502225503 10 0.0 0.0 0.00 0.00 0.00 64 1017.7
20260502223504 11 0.0 0.0 0.00 0.00 0.00 64 1017.8
20260502222503 11 0.0 0.0 0.00 0.00 0.00 64 1017.9
20260502221503 11 0.0 0.0 0.00 0.00 0.00 62 1017.9
20260502220503 11 0.0 0.0 0.00 0.00 0.00 60 1018.0
20260502215503 12 0.0 0.0 0.00 0.00 0.00 60 1018.0
20260502212503 12 0.0 0.0 0.00 0.00 0.00 58 1018.0
20260502211503 12 0.0 0.0 0.00 0.00 0.00 59 1018.1
20260502210503 12 0.0 0.0 0.00 0.00 0.00 57 1018.2
20260502205503 13 0.0 0.0 0.00 0.00 0.00 53 1018.0
20260502204503 13 0.0 0.0 0.00 0.00 0.00 53 1018.1
20260502203503 13 0.0 0.0 0.00 0.00 0.00 51 1018.2
20260502202503 13 0.0 0.0 0.00 0.00 0.00 48 1018.1
20260502201503 14 0.0 0.0 0.00 0.00 0.00 46 1018.0
20260502195503 15 0.0 0.0 0.00 0.00 0.00 45 1018.1
20260502194503 15 0.0 0.0 0.00 0.00 0.00 43 1018.2
20260502193503 15 0.0 0.0 0.00 0.00 0.00 43 1018.3
20260502192505 16 0.0 0.0 0.00 0.00 0.00 42 1018.3
20260502191503 16 0.0 0.0 0.00 0.00 0.00 42 1018.4
20260502190504 16 0.0 0.0 0.00 0.00 0.00 42 1018.3
20260502184503 17 0.0 0.0 0.00 0.00 0.00 40 1018.3
20260502183503 17 0.0 0.0 0.00 0.00 0.00 40 1018.2
20260502182503 17 0.0 0.0 0.00 0.00 0.00 39 1018.2
20260502181503 18 0.0 0.0 0.00 0.00 0.00 38 1018.1
20260502170503 22 0.0 0.0 0.00 0.00 0.00 31 1018.1
20260502163502 22 0.0 0.0 0.00 0.00 0.00 31 1018.4
20260502162502 22 0.0 0.0 0.00 0.00 0.00 30 1018.4
20260502161503 23 0.0 0.0 0.00 0.00 0.00 30 1018.5
20260502160502 23 0.0 0.0 0.00 0.00 0.00 30 1018.7
20260502151502 24 0.0 0.0 0.00 0.00 0.00 28 1019.1
20260502150503 24 0.0 0.0 0.00 0.00 0.00 27 1019.2
20260502130504 25 0.0 0.0 0.00 0.00 0.00 26 1020.5
20260502123504 25 0.0 0.0 0.00 0.00 0.00 26 1020.9
20260502122503 25 0.0 0.0 0.00 0.00 0.00 27 1021.0
20260502121503 25 0.0 0.0 0.00 0.00 0.00 27 1021.2
20260502115503 25 0.0 0.0 0.00 0.00 0.00 26 1021.4
20260502114503 25 0.0 0.0 0.00 0.00 0.00 25 1021.5
20260502113505 25 0.0 0.0 0.00 0.00 0.00 25 1021.7
20260502112503 25 0.0 0.0 0.00 0.00 0.00 26 1021.8
20260502111503 25 0.0 0.0 0.00 0.00 0.00 26 1021.8
20260502110503 26 0.0 0.0 0.00 0.00 0.00 26 1022.0
20260502105503 25 0.0 0.0 0.00 0.00 0.00 26 1022.1
20260502104505 25 0.0 0.0 0.00 0.00 0.00 24 1022.2
20260502103504 25 0.0 0.0 0.00 0.00 0.00 26 1022.3
20260502102505 25 0.0 0.0 0.00 0.00 0.00 26 1022.4
20260502100504 25 0.0 0.0 0.00 0.00 0.00 26 1022.5
20260502091503 23 0.0 0.0 0.00 0.00 0.00 32 1023.1
20260502090503 22 0.0 0.0 0.00 0.00 0.00 32 1023.2
20260502071505 18 0.0 0.0 0.00 0.00 0.00 37 1023.7
20260502065503 18 0.0 0.0 0.00 0.00 0.00 38 1023.7
20260502064504 17 0.0 0.0 0.00 0.00 0.00 38 1023.8
20260502063503 17 0.0 0.0 0.00 0.00 0.00 40 1023.8
20260502062503 16 0.0 0.0 0.00 0.00 0.00 41 1023.9
20260502061503 16 0.0 0.0 0.00 0.00 0.00 45 1024.0
20260502060504 15 0.0 0.0 0.00 0.00 0.00 50 1024.1
20260502055503 14 0.0 0.0 0.00 0.00 0.00 54 1024.2
20260502053503 12 0.0 0.0 0.00 0.00 0.00 60 1024.3
20260502051508 10 0.0 0.0 0.00 0.00 0.00 66 1024.4
20260502050503 9 0.0 0.0 0.00 0.00 0.00 68 1024.4
20260502045503 8 0.0 0.0 0.00 0.00 0.00 69 1024.5
20260502043503 7 0.0 0.0 0.00 0.00 0.00 71 1024.5
20260502042504 6 0.0 0.0 0.00 0.00 0.00 71 1024.5
20260502041503 6 0.0 0.0 0.00 0.00 0.00 71 1024.6
20260502040503 6 0.0 0.0 0.00 0.00 0.00 71 1024.6
20260502035503 5 0.0 0.0 0.00 0.00 0.00 70 1024.5